Showing default

YAOGAN-31 L, 47856

Orbit data source: Space-Track

YAOGAN-31 L, 47856 is a payload satellite owned by PLA SSF (CN) in LEO that was launched on Sat, 13 Mar 2021 UTC via a CHANG ZHENG 4C launch vehicle from the Jiuquan Satellite Launch Center, China (JSC). Payload-class satellites include a variety of spacecraft equipped with specific instruments for various scientific and technological missions. These include communications satellites like Starlink; space stations such as the ISS; scientific satellites like the Hubble; Earth observation satellites from companies like Planet Labs, Umbra, and HawkEye 360; GPS; miniature CubeSats for education and research; and military/defense satellites.

Loading next visibility...
Identifier
47856, 2021-020C
Orbit
LEO
Country
Flag of CNCN / PRC
Related business
Manufacturer
DFH
Mission
Operational Defense Sigint
Bus & Motor
Unknown
Mass
~500 kg wet, ~500 kg dry
Launch date (UTC)
2021-03-13 (5 years ago)
Launch vehicle
CHANG ZHENG 4C
Launch site
Jiuquan Satellite Launch Center, China (JSC)
Object type
Payload
Rocket body
Debris
Shape & HBR
Box + 2 Pan, 0.5 m
Radar Cross Section
0.446 m², Large (>1 m²)

Expand to show TLE details & history
Last TLE update: 1 day ago

TLE from 1 day ago
0 YAOGAN-31 L
1 47856U 21020C   26172.54482722 -.00000115  00000-0 -37990-4 0  9998
2 47856  63.4048 247.5860 0175044   0.5415 359.5769 13.45447603258999
Epoch: 2026-06-21T13:04Z
TLE epoch observation values (Epoch: 2026-06-21T13:04:33.071Z)
Latitude
-0.00006°
Longitude
141.70461°
Altitude
960.104 km
Speed
7.436 km/s
True Right ascension
16h 30m 20s
True Declination
0° 00' 00"
Sunlit
Object was in full shadow at epoch
Visualization orbit readout
Latitude
Unknown
Longitude
Unknown
Altitude
Unknown
Speed
Unknown
Apparent Right ascension
Unknown
Apparent Declination
Unknown
Sunlit
N/A
Visualization observer readout
Local Sidereal Time
00:39:34
Azimuth
Unknown
Elevation
Unknown
Doppler factor
Unknown
Orbital elements
Apogee altitude
1,218.571 km
Perigee altitude
957.195 km
Semi-major axis
7,466.02 km
Eccentricity
0.0175
Inclination
63.4048°
RAAN
247.586°
Arg. of periapsis
0.5415°
True anomaly
359.56176°
Mean anomaly
359.5769°
Eccentric anomaly
359.56936°
Mean motion
3.36441 °/min
Orbital period
107 mins
BSTAR
-0.00003799
Loading maneuver chart data...
Computing Atmospheric mass density...
Loading historical data...
Loading historical data...
Loading historical data...
Loading historical data...
Loading historical data...
Loading historical data...
Loading historical data...
Other satellites on launch #20 in the year 2021 (2021-03-13 UTC)

Documentation

Showing up to 5 results
|